Regional Weather Roundup
Issued by NWS

Home | Current Version | Previous Version | Graphics & Text | Print | Product List | Glossary On
Versions: 1 2 3 4 5 6 7 8 9 10 11 12 13 14 15 16 17 18 19 20 21 22 23 24 25 26 27 28 29 30 31 32 33 34 35 36 37 38 39 40 41 42 43 44 45 46 47 48 49 50
000
ASUS45 KCYS 180910
RWRWY

WYOMING REGIONAL WEATHER ROUNDUP
NATIONAL WEATHER SERVICE CHEYENNE WY
300 AM MDT SAT APR 18 2015

NOTE:  "FAIR" INDICATES FEW OR NO CLOUDS BELOW 12,000 FEET
WITH NO SIGNIFICANT WEATHER AND/OR OBSTRUCTIONS TO VISIBILITY.

WYZ001-181000-
YELLOWSTONE NATIONAL PARK

CITY           SKY/WX    TMP DP  RH WIND       PRES   REMARKS
LK YELLOWSTONE   N/A     25  20  81 CALM      30.14F
W YELLOWSTONE  NOT AVBL

$$
WYZ002>013-054>058-071-098>099-181000-
NORTHERN WYOMING

CITY           SKY/WX    TMP DP  RH WIND       PRES   REMARKS
JACKSON        FAIR      32  25  74 N5        30.08F WCI  27
CODY           FAIR      39  28  65 SW3       30.02F
GREYBULL       FAIR      41  28  60 SE3       30.01F
WORLAND        FAIR      36  32  85 CALM      30.01F
SHERIDAN       FAIR      35  30  82 CALM      29.99F
BUFFALO        FAIR      42  34  73 S9        30.02F
GILLETTE       CLOUDY    44  39  82 S12       30.03F
HULETT         CLOUDY    41  37  87 CALM      30.06F
NEWCASTLE      CLOUDY    43  43 100 CALM      30.04F

$$
WYZ014>020-022>026-101>103-181000-
CENTRAL WYOMING

CITY           SKY/WX    TMP DP  RH WIND       PRES   REMARKS
BIG PINEY      FAIR      27  23  85 NE8       30.08F WCI  19
PINEDALE       FAIR      27  25  93 NW6       30.09F WCI  20
DUBOIS         FAIR      28  23  80 NW8       30.08F WCI  20
LANDER         FAIR      39  34  82 CALM      30.05F
RIVERTON       FAIR      36  32  85 NW7       30.06F WCI  30
CASPER         CLOUDY    37  36  96 S5        30.05F FOG     WCI  33
DOUGLAS        CLOUDY    37  36  96 NW6       30.05S WCI  32

$$
WYZ021-027>030-104>119-181000-
SOUTHERN WYOMING

CITY           SKY/WX    TMP DP  RH WIND       PRES   REMARKS
EVANSTON       FAIR      34  30  85 N5        30.10F WCI  30
FORT BRIDGER   SUNNY     36  34  93 SW8       30.10F WCI  29
ROCK SPRINGS   CLOUDY    36  34  92 CALM      30.06F
DIXON          PTSUNNY   26  25  94 NE3       30.04S
RAWLINS        CLOUDY    32  31  96 N7        30.05F WCI  26
SARATOGA       CLOUDY    30  30 100 CALM      30.04F
LARAMIE        FOG       28  27  96 CALM      30.00F VSB 1
CHEYENNE       LGT RAIN  34  33  96 NW6       29.99F WCI  29
TORRINGTON     LGT RAIN  40  40 100 NW10      29.97F FOG     WCI  33
PINE BLUFFS    DRIZZLE   36  36 100 N10       29.98F WCI  28

$$



USA.gov is the U.S. government's official web portal to all federal, state and local government web resources and services.